This demonstration page uses our WeatherBlox Daily Observations layout. Learn more.

Left ArrowRight Arrow

Hourly Observations for August 19, 2017

Temp ( °F °C ) Dew Point ( °F °C ) Humidity (%) Winds ( mph kmh ) Pressure ( in mb ) Visibility ( mi km ) Precip ( " mm )
12:52 am 00:52 Partly Cloudy 70 21.1 67 19.4 90 90 S 6 9 29.96 1014 10 16 0.00 0.00
1:52 am 01:52 Clear 69 20.6 67 19.4 93 93 S 5 7 29.95 1014 10 16 0.00 0.00
2:52 am 02:52 Clear 68 20 67 19.4 96 96 S 7 11 29.94 1014 10 16 0.00 0.00
3:52 am 03:52 Clear 68 20 67 19.4 96 96 S 7 11 29.94 1014 10 16 0.00 0.00
4:52 am 04:52 Clear 67 19.4 67 19.4 100 100 S 7 11 29.93 1014 10 16 0.00 0.00
5:52 am 05:52 Clear 68 20 67 19.4 96 96 SSW 7 11 29.93 1014 10 16 0.00 0.00
6:52 am 06:52 Sunny 69 20.6 69 20.6 100 100 SSW 5 7 29.95 1014 8 13 0.00 0.00
7:52 am 07:52 Sunny 72 22.2 71 21.7 97 97 S 5 7 29.96 1015 10 16 0.00 0.00
8:52 am 08:52 Sunny 77 25 74 23.3 90 90 SW 7 11 29.96 1015 10 16 0.00 0.00
9:52 am 09:52 Sunny 82 27.8 75 23.9 79 79 W 13 20 29.97 1015 10 16 0.00 0.00
10:52 am 10:52 Sunny 85 29.4 76 24.4 75 75 WSW 9 15 29.96 1015 10 16 0.00 0.00
11:52 am 11:52 Sunny 86 30 75 23.9 70 70 WSW 12 19 29.96 1015 10 16 0.00 0.00
12:52 pm 12:52 Sunny 88 31.1 76 24.4 68 68 W 8 13 29.96 1014 10 16 0.00 0.00
1:52 pm 13:52 Partly Cloudy 89 31.7 75 23.9 63 63 WNW 6 9 29.95 1014 10 16 0.00 0.00
2:52 pm 14:52 Mostly Sunny 90 32.2 75 23.9 62 62 SW 9 15 29.93 1014 10 16 0.00 0.00
3:52 pm 15:52 Sunny 91 32.8 76 24.4 61 61 WSW 6 9 29.93 1013 10 16 0.00 0.00
4:52 pm 16:52 Mostly Sunny 91 32.8 73 22.8 56 56 WSW 5 7 29.91 1013 10 16 0.00 0.00
5:52 pm 17:52 Sunny 89 31.7 74 23.3 61 61 NW 3 6 29.90 1013 10 16 0.00 0.00
6:52 pm 18:52 Sunny 87 30.6 76 24.4 70 70 Calm 29.91 1013 10 16 0.00 0.00
7:52 pm 19:52 Sunny 82 27.8 76 24.4 82 82 E 5 7 29.90 1013 10 16 0.00 0.00
8:52 pm 20:52 Clear 81 27.2 75 23.9 82 82 ESE 5 7 29.92 1013 10 16 0.00 0.00
9:52 pm 21:52 Clear 78 25.6 75 23.9 90 90 SE 5 7 29.94 1014 10 16 0.00 0.00
10:52 pm 22:52 Clear 78 25.6 74 23.3 87 87 SE 6 9 29.94 1014 10 16 0.00 0.00
11:52 pm 23:52 Mostly Clear 78 25.6 74 23.3 87 87 SSE 8 13 29.96 1015 10 16 0.00 0.00

Powered by AerisWeather